Regional Weather Roundup
Issued by NWS Little Rock, AR

Home | Current Version | Previous Version | Text Only | Print | Product List | Glossary On
Versions: 1 2 3 4 5 6 7 8 9 10 11 12 13 14 15 16 17 18 19 20 21 22 23 24 25 26 27 28 29 30 31 32 33 34 35 36 37 38 39 40 41 42 43 44 45 46 47 48 49 50
000
ASUS44 KLZK 010005
RWRLZK

WEATHER ROUNDUP FOR ARKANSAS
NATIONAL WEATHER SERVICE LITTLE ROCK AR
700 PM CDT TUE SEP 30 2014

NOTE: "FAIR" INDICATES FEW OR NO CLOUDS BELOW 12,000 FEET WITH NO
SIGNIFICANT WEATHER AND/OR OBSTRUCTIONS TO VISIBILITY.

ARZ001-003-010-029-010100-
NORTHWEST ARKANSAS

CITY           SKY/WX    TMP DP  RH WIND       PRES   REMARKS
FAYETTEVILLE   CLEAR     73  62  68 E5        29.87S
6HR MIN TEMP:  73; 6HR MAX TEMP:  82;

FORT SMITH     CLEAR     79  62  56 SE5       29.82F
6HR MIN TEMP:  79; 6HR MAX TEMP:  84;

HARRISON       CLEAR     73  59  61 S3        29.89S
6HR MIN TEMP:  73; 6HR MAX TEMP:  82;

BENTONVILLE    PTCLDY    75  59  57 S7        29.87S
6HR MIN TEMP:  75; 6HR MAX TEMP:  82;

ROGERS         CLEAR     74  60  61 SE9       29.88S
6HR MIN TEMP:  74; 6HR MAX TEMP:  82;

SILOAM SPGS    CLEAR     73  57  56 SE7       29.86F
6HR MIN TEMP:  73; 6HR MAX TEMP:  82;

HIGHFILL       CLEAR     74  60  61 S10       29.86S
6HR MIN TEMP:  74; 6HR MAX TEMP:  83;

SPRINGDALE     CLEAR     75  61  60 S13       29.89S
$$

ARZ004-005-016-010100-
NORTH CENTRAL ARKANSAS

CITY           SKY/WX    TMP DP  RH WIND       PRES   REMARKS
BATESVILLE     CLOUDY    81  50  34 SE3       29.87R
6HR MIN TEMP:  81; 6HR MAX TEMP:  90;

FLIPPIN        CLEAR     77  54  44 E3        29.87S
6HR MIN TEMP:  77; 6HR MAX TEMP:  84;

MTN HOME       CLEAR     76  56  49 E3        29.87S
6HR MIN TEMP:  76; 6HR MAX TEMP:  85;

$$

ARZ040-041-010100-
WEST CENTRAL ARKANSAS

CITY           SKY/WX    TMP DP  RH WIND       PRES   REMARKS
MENA           CLEAR     77  68  73 CALM      29.86S
MOUNT IDA      MOCLDY    74  67  78 CALM      29.84S
6HR MIN TEMP:  74; 6HR MAX TEMP:  83;

$$

ARZ009-017-025-026-028-010100-
NORTHEAST ARKANSAS

CITY           SKY/WX    TMP DP  RH WIND       PRES   REMARKS
CORNING          N/A     73  61  64 E6        29.87S HAZE
JONESBORO      MOCLDY    76  60  57 CALM      29.86S
6HR MIN TEMP:  76; 6HR MAX TEMP:  88;

NEWPORT        MOCLDY    81  57  43 CALM      29.87S
6HR MIN TEMP:  81; 6HR MAX TEMP:  89;

WALNUT RIDGE   MOCLDY    73  61  64 NE7       29.85F
6HR MIN TEMP:  73; 6HR MAX TEMP:  86;

BLYTHEVILLE    MOCLDY    79  61  53 SE3       29.87S
6HR MIN TEMP:  79; 6HR MAX TEMP:  90;

$$

ARZ022-023-033-042-044-010100-
CENTRAL ARKANSAS

CITY           SKY/WX    TMP DP  RH WIND       PRES   REMARKS
LITTLE ROCK    MOCLDY    80  58  46 CALM      29.85S
6HR MIN TEMP:  80; 6HR MAX TEMP:  89;

N LITTLE ROCK  MOCLDY    78  60  52 CALM      29.85S
6HR MIN TEMP:  78; 6HR MAX TEMP:  87;

JACKSONVILLE   PTCLDY    76  62  61 CALM      29.86R
6HR MIN TEMP:  76; 6HR MAX TEMP:  88;

SEARCY         PTCLDY    74  60  61 CALM      29.87R
6HR MIN TEMP:  74; 6HR MAX TEMP:  88;

HOT SPRINGS    MOCLDY    80  61  52 E5        29.85S
6HR MIN TEMP:  80; 6HR MAX TEMP:  86;

RUSSELLVILLE   PTCLDY    76  63  64 CALM      29.85S
6HR MIN TEMP:  76; 6HR MAX TEMP:  87;

CLINTON        FAIR      75  64  69 CALM      29.87R
$$

ARZ036-010100-
EAST ARKANSAS

CITY           SKY/WX    TMP DP  RH WIND       PRES   REMARKS
WEST MEMPHIS   PTCLDY    75  63  66 CALM      29.85S
6HR MIN TEMP:  75; 6HR MAX TEMP:  88;

$$

ARZ050-053-066-070-073-010100-
SOUTHWEST ARKANSAS

CITY           SKY/WX    TMP DP  RH WIND       PRES   REMARKS
ARKADELPHIA    FAIR      77  71  81 CALM      29.84S
6HR MIN TEMP:  77; 6HR MAX TEMP:  89;

CAMDEN         MOCLDY    77  63  61 NE3       29.82S
TEXARKANA      MOCLDY    81  66  60 E6        29.81S
6HR MIN TEMP:  81; 6HR MAX TEMP:  87;

EL DORADO      CLEAR     78  67  68 CALM      29.82S
6HR MIN TEMP:  78; 6HR MAX TEMP:  90;

DE QUEEN       PTCLDY    78  68  71 E5        29.80S
6HR MIN TEMP:  78; 6HR MAX TEMP:  86;

$$

ARZ056-057-069-010100-
SOUTHEAST ARKANSAS

CITY           SKY/WX    TMP DP  RH WIND       PRES   REMARKS
PINE BLUFF     PTCLDY    80  60  50 CALM      29.85R
6HR MIN TEMP:  80; 6HR MAX TEMP:  88;

STUTTGART      PTCLDY   N/A N/A N/A NE6       29.86S
MONTICELLO     PTCLDY    79  62  56 CALM      29.83S
6HR MIN TEMP:  79; 6HR MAX TEMP:  89;


$$





USA.gov is the U.S. government's official web portal to all federal, state and local government web resources and services.